This is the latest recevied weather packets stored in our database for station/object K1RFS. If no packets are shown the sender has not sent any weather packets the latest 10 day(s).
| Time | Temp. | Humidity | Pressure | Rain* | Wind** | Luminosity | Snow |
|---|---|---|---|---|---|---|---|
| 1788077086 | 17.22° C | 73% | 1002 hPa | 0 mm | - | 0 W/m² | - |
| 1788076785 | 17.22° C | 75% | 1002.3 hPa | 0 mm | - | 0 W/m² | - |
| 1788076480 | 17.22° C | 77% | 1002.1 hPa | 0 mm | - | 0 W/m² | - |
| 1788076176 | 17.78° C | 76% | 1002.3 hPa | 0 mm | - | 0 W/m² | - |
| 1788075871 | 17.78° C | 73% | 1002.2 hPa | 0 mm | - | 0 W/m² | - |
| 1788075567 | 17.78° C | 73% | 1001.8 hPa | 0 mm | - | 0 W/m² | - |
| 1788075262 | 17.78° C | 71% | 1001.8 hPa | 0 mm | - | 0 W/m² | - |
| 1788074958 | 17.78° C | 71% | 1002.3 hPa | 0 mm | - | 0 W/m² | - |
| 1788074654 | 17.78° C | 71% | 1002.1 hPa | 0 mm | - | 0 W/m² | - |
| 1788074353 | 17.78° C | 71% | 1002.3 hPa | 0 mm | - | 0 W/m² | - |
| 1788074054 | 17.78° C | 73% | 1002.2 hPa | 0 mm | - | 0 W/m² | - |
| 1788073747 | 17.78° C | 76% | 1001.8 hPa | 0 mm | - | 0 W/m² | - |
| 1788073447 | 17.22° C | 79% | 1001.8 hPa | 0 mm | - | 0 W/m² | - |
| 1788073146 | 17.22° C | 81% | 1002.1 hPa | 0 mm | - | 0 W/m² | - |
| 1788072841 | 17.22° C | 81% | 1002.4 hPa | 0 mm | - | 0 W/m² | - |
| 1788072539 | 17.22° C | 83% | 1002.3 hPa | 0 mm | - | 0 W/m² | - |
| 1788072235 | 17.22° C | 84% | 1002 hPa | 0 mm | - | 0 W/m² | - |
| 1788071934 | 17.22° C | 84% | 1001.8 hPa | 0 mm | - | 0 W/m² | - |
| 1788071629 | 17.22° C | 83% | 1002 hPa | 0 mm | - | 0 W/m² | - |
| 1788071329 | 17.22° C | 82% | 1002.1 hPa | 0 mm | - | 0 W/m² | - |
| 1788071028 | 17.22° C | 79% | 1001.8 hPa | 0 mm | - | 0 W/m² | - |
| 1788070723 | 17.22° C | 78% | 1001.7 hPa | 0 mm | - | 0 W/m² | - |
| 1788070423 | 17.22° C | 76% | 1002 hPa | 0 mm | - | 0 W/m² | - |
| 1788070120 | 17.22° C | 75% | 1002 hPa | 0 mm | - | 0 W/m² | - |
| 1788069816 | 17.22° C | 75% | 1002 hPa | 0 mm | - | 0 W/m² | - |
* Rain latest hour (hover to see other rain measurements)
** Current wind speed in m/s (hover to see current wind gust speed)